This is the latest recevied weather packets stored in our database for station/object WX5HOT. If no packets are shown the sender has not sent any weather packets the latest 10 day(s).
| Time | Temp. | Humidity | Pressure | Rain* | Wind** | Luminosity | Snow |
|---|---|---|---|---|---|---|---|
| 1778000598 | 17.22° C | 99% | 1057.5 hPa | 1.27 mm | - | 114 W/m² | - |
| 1778000293 | 17.22° C | 99% | 1057.6 hPa | 0 mm | - | 90 W/m² | - |
| 1777999989 | 16.67° C | 99% | 1057.6 hPa | 0 mm | - | 79 W/m² | - |
| 1777999685 | 16.67° C | 99% | 1057.8 hPa | 1.78 mm | - | 87 W/m² | - |
| 1777999382 | 16.67° C | 99% | 1057.9 hPa | 1.78 mm | - | 64 W/m² | - |
| 1777999080 | 16.67° C | 99% | 1057.7 hPa | 1.27 mm | - | 70 W/m² | - |
| 1777998779 | 16.67° C | 99% | 1057.6 hPa | 1.27 mm | - | 70 W/m² | - |
| 1777998476 | 16.67° C | 99% | 1057.7 hPa | 1.78 mm | - | 78 W/m² | - |
| 1777998173 | 16.67° C | 99% | 1057.6 hPa | 1.78 mm | - | 94 W/m² | - |
| 1777997870 | 16.67° C | 99% | 1057.6 hPa | 1.27 mm | - | 80 W/m² | - |
| 1777997567 | 16.67° C | 99% | 1057.7 hPa | 1.27 mm | - | 56 W/m² | - |
| 1777997264 | 16.67° C | 99% | 1057.6 hPa | 0 mm | - | 89 W/m² | - |
| 1777996962 | 16.67° C | 99% | 1057.7 hPa | 1.78 mm | - | 88 W/m² | - |
| 1777996658 | 16.67° C | 99% | 1057.5 hPa | 1.78 mm | - | 77 W/m² | - |
| 1777996354 | 16.67° C | 99% | 1057.6 hPa | 1.27 mm | - | 75 W/m² | - |
| 1777996051 | 16.67° C | 99% | 1057.6 hPa | 3.05 mm | - | 84 W/m² | - |
| 1777995747 | 16.67° C | 99% | 1057.7 hPa | 1.78 mm | - | 95 W/m² | - |
| 1777995444 | 16.67° C | 99% | 1057.8 hPa | 1.27 mm | - | 78 W/m² | - |
| 1777995141 | 16.67° C | 99% | 1058 hPa | 3.05 mm | - | 63 W/m² | - |
| 1777994838 | 16.67° C | 99% | 1058 hPa | 1.78 mm | - | 65 W/m² | - |
| 1777994534 | 16.67° C | 99% | 1058.2 hPa | 1.78 mm | - | 61 W/m² | - |
| 1777994229 | 16.67° C | 99% | 1058 hPa | 3.05 mm | - | 73 W/m² | - |
| 1777993927 | 16.67° C | 99% | 1058 hPa | 3.05 mm | - | 55 W/m² | - |
| 1777993623 | 16.67° C | 99% | 1058.3 hPa | 1.78 mm | - | 62 W/m² | - |
| 1777993321 | 16.67° C | 99% | 1057.9 hPa | 3.05 mm | - | 56 W/m² | - |
* Rain latest hour (hover to see other rain measurements)
** Current wind speed in m/s (hover to see current wind gust speed)